Time,TemperatureF,DewpointF,PressureIn,WindDirection,WindDirectionDegrees,WindSpeedMPH,WindSpeedGustMPH,Humidity,HourlyPrecipIn,Conditions,Clouds,dailyrainin,SoftwareType,DateUTC
2013-04-02 00:00:00,33.9,18.9,29.86,NW,315,0.0,0.0,54,0.00,,,0.00,WUHU216HW,2013-04-02 05:00:00,
2013-04-02 00:05:00,33.9,18.9,29.86,NW,315,1.7,1.7,54,0.00,,,0.00,WUHU216HW,2013-04-02 05:05:00,
2013-04-02 00:10:00,33.9,18.9,29.86,NNE,23,0.0,1.7,54,0.00,,,0.00,WUHU216HW,2013-04-02 05:10:00,
2013-04-02 00:15:00,33.9,18.9,29.85,North,0,0.0,1.7,54,0.00,,,0.00,WUHU216HW,2013-04-02 05:15:00,
2013-04-02 00:20:00,33.9,18.9,29.86,NW,315,0.0,0.0,54,0.00,,,0.00,WUHU216HW,2013-04-02 05:20:00,
2013-04-02 00:25:00,33.9,18.9,29.86,NNW,338,0.0,0.0,54,0.00,,,0.00,WUHU216HW,2013-04-02 05:25:00,
2013-04-02 00:30:00,33.9,18.9,29.86,North,0,0.0,0.0,54,0.00,,,0.00,WUHU216HW,2013-04-02 05:30:00,
2013-04-02 00:35:00,33.9,18.9,29.86,North,0,0.6,0.6,54,0.00,,,0.00,WUHU216HW,2013-04-02 05:35:00,
2013-04-02 00:40:00,34.1,19.1,29.86,NE,45,0.0,0.6,54,0.00,,,0.00,WUHU216HW,2013-04-02 05:40:00,
2013-04-02 00:45:00,34.1,19.1,29.86,North,0,0.0,0.0,54,0.00,,,0.00,WUHU216HW,2013-04-02 05:45:00,
2013-04-02 00:50:00,34.1,19.1,29.85,NNW,338,0.0,1.3,54,0.00,,,0.00,WUHU216HW,2013-04-02 05:50:00,
2013-04-02 00:55:00,34.1,19.1,29.85,North,0,0.0,1.3,54,0.00,,,0.00,WUHU216HW,2013-04-02 05:55:00,
2013-04-02 01:00:00,34.1,19.1,29.85,NW,315,2.2,2.2,54,0.00,,,0.00,WUHU216HW,2013-04-02 06:00:00,
2013-04-02 01:05:00,34.1,19.1,29.85,NNE,23,0.0,2.2,54,0.00,,,0.00,WUHU216HW,2013-04-02 06:05:00,
2013-04-02 01:10:00,33.9,18.5,29.85,North,0,0.0,2.2,53,0.00,,,0.00,WUHU216HW,2013-04-02 06:10:00,
2013-04-02 01:15:00,33.9,18.5,29.86,North,0,0.0,0.0,53,0.00,,,0.00,WUHU216HW,2013-04-02 06:15:00,
2013-04-02 01:20:00,33.9,18.9,29.86,North,0,0.0,0.0,54,0.00,,,0.00,WUHU216HW,2013-04-02 06:20:00,
2013-04-02 01:25:00,33.8,18.7,29.86,ENE,68,0.0,2.4,54,0.00,,,0.00,WUHU216HW,2013-04-02 06:25:00,
2013-04-02 01:30:00,33.6,18.6,29.86,NE,45,0.0,2.4,54,0.00,,,0.00,WUHU216HW,2013-04-02 06:30:00,
2013-04-02 01:35:00,33.6,18.6,29.86,North,0,0.0,0.0,54,0.00,,,0.00,WUHU216HW,2013-04-02 06:35:00,
2013-04-02 01:40:00,33.4,18.4,29.86,North,0,0.0,0.0,54,0.00,,,0.00,WUHU216HW,2013-04-02 06:40:00,
2013-04-02 01:45:00,33.2,18.3,29.86,North,0,0.0,0.0,54,0.00,,,0.00,WUHU216HW,2013-04-02 06:45:00,
2013-04-02 01:50:00,33.2,18.3,29.87,NNE,23,0.0,0.0,54,0.00,,,0.00,WUHU216HW,2013-04-02 06:50:00,
2013-04-02 01:55:00,33.0,18.1,29.86,NNW,338,0.0,0.0,54,0.00,,,0.00,WUHU216HW,2013-04-02 06:55:00,
2013-04-02 02:00:00,33.0,18.1,29.86,NNW,338,0.0,0.0,54,0.00,,,0.00,WUHU216HW,2013-04-02 07:00:00,
2013-04-02 02:05:00,33.0,18.1,29.87,North,0,0.0,0.0,54,0.00,,,0.00,WUHU216HW,2013-04-02 07:05:00,
2013-04-02 02:10:00,32.9,17.9,29.86,North,0,0.0,0.0,54,0.00,,,0.00,WUHU216HW,2013-04-02 07:10:00,
2013-04-02 02:15:00,32.7,18.2,29.86,NE,45,0.0,0.0,55,0.00,,,0.00,WUHU216HW,2013-04-02 07:15:00,
2013-04-02 02:20:00,32.7,18.2,29.87,NNE,23,0.0,0.0,55,0.00,,,0.00,WUHU216HW,2013-04-02 07:20:00,
2013-04-02 02:25:00,32.7,18.2,29.86,NNE,23,0.0,0.0,55,0.00,,,0.00,WUHU216HW,2013-04-02 07:25:00,
2013-04-02 02:30:00,32.7,18.2,29.86,NE,45,0.0,0.0,55,0.00,,,0.00,WUHU216HW,2013-04-02 07:30:00,
2013-04-02 02:35:00,32.7,18.2,29.86,North,0,0.0,0.0,55,0.00,,,0.00,WUHU216HW,2013-04-02 07:35:00,
2013-04-02 02:40:00,32.7,18.6,29.86,NW,315,0.0,0.0,56,0.00,,,0.00,WUHU216HW,2013-04-02 07:40:00,
2013-04-02 02:45:00,32.5,18.5,29.86,North,0,0.0,0.0,56,0.00,,,0.00,WUHU216HW,2013-04-02 07:45:00,
2013-04-02 02:50:00,32.5,18.5,29.86,North,0,0.0,0.0,56,0.00,,,0.00,WUHU216HW,2013-04-02 07:50:00,
2013-04-02 02:55:00,32.5,18.5,29.86,NNE,23,0.0,0.0,56,0.00,,,0.00,WUHU216HW,2013-04-02 07:55:00,
2013-04-02 03:00:00,32.3,18.3,29.86,NNE,23,0.0,0.0,56,0.00,,,0.00,WUHU216HW,2013-04-02 08:00:00,
2013-04-02 03:05:00,32.1,18.1,29.86,NNE,23,0.0,0.0,56,0.00,,,0.00,WUHU216HW,2013-04-02 08:05:00,
2013-04-02 03:10:00,32.1,18.1,29.86,NNE,23,0.0,0.0,56,0.00,,,0.00,WUHU216HW,2013-04-02 08:10:00,
2013-04-02 03:15:00,32.1,18.6,29.86,NNE,23,0.0,0.0,57,0.00,,,0.00,WUHU216HW,2013-04-02 08:15:00,
2013-04-02 03:20:00,32.1,18.6,29.86,NNE,23,0.0,0.0,57,0.00,,,0.00,WUHU216HW,2013-04-02 08:20:00,
2013-04-02 03:25:00,32.1,18.6,29.86,North,0,0.0,0.0,57,0.00,,,0.00,WUHU216HW,2013-04-02 08:25:00,
2013-04-02 03:30:00,31.8,18.2,29.86,North,0,0.0,0.0,57,0.00,,,0.00,WUHU216HW,2013-04-02 08:30:00,
2013-04-02 03:35:00,31.8,18.2,29.86,North,0,0.0,0.0,57,0.00,,,0.00,WUHU216HW,2013-04-02 08:35:00,
2013-04-02 03:40:00,31.8,18.2,29.87,North,0,0.0,0.0,57,0.00,,,0.00,WUHU216HW,2013-04-02 08:40:00,
2013-04-02 03:45:00,31.8,18.2,29.86,NE,45,0.0,0.0,57,0.00,,,0.00,WUHU216HW,2013-04-02 08:45:00,
2013-04-02 03:50:00,31.8,18.7,29.86,North,0,0.0,0.0,58,0.00,,,0.00,WUHU216HW,2013-04-02 08:50:00,
2013-04-02 03:55:00,31.8,18.2,29.86,NNE,23,0.0,0.0,57,0.00,,,0.00,WUHU216HW,2013-04-02 08:55:00,
2013-04-02 04:00:00,31.8,18.7,29.86,NNE,23,0.0,0.0,58,0.00,,,0.00,WUHU216HW,2013-04-02 09:00:00,
2013-04-02 04:05:00,31.8,18.7,29.86,NNE,23,0.0,0.0,58,0.00,,,0.00,WUHU216HW,2013-04-02 09:05:00,
2013-04-02 04:10:00,31.8,18.7,29.86,NNW,338,0.0,0.0,58,0.00,,,0.00,WUHU216HW,2013-04-02 09:10:00,
2013-04-02 04:15:00,31.8,18.7,29.86,NE,45,0.0,0.0,58,0.00,,,0.00,WUHU216HW,2013-04-02 09:15:00,
2013-04-02 04:20:00,31.8,18.7,29.86,NE,45,0.0,0.0,58,0.00,,,0.00,WUHU216HW,2013-04-02 09:20:00,
2013-04-02 04:25:00,31.8,18.7,29.87,NE,45,0.0,0.0,58,0.00,,,0.00,WUHU216HW,2013-04-02 09:25:00,
2013-04-02 04:30:00,32.1,19.0,29.86,NE,45,0.0,0.0,58,0.00,,,0.00,WUHU216HW,2013-04-02 09:30:00,
2013-04-02 04:35:00,32.1,19.0,29.87,NE,45,0.0,0.0,58,0.00,,,0.00,WUHU216HW,2013-04-02 09:35:00,
2013-04-02 04:40:00,32.1,19.0,29.86,NE,45,0.0,0.0,58,0.00,,,0.00,WUHU216HW,2013-04-02 09:40:00,
2013-04-02 04:41:00,32.1,19.0,29.86,NE,45,0.0,0.0,58,0.00,,,0.00,WUHU216HW,2013-04-02 09:41:00,
2013-04-02 04:43:00,32.1,19.0,29.86,NE,45,0.0,0.0,58,0.00,,,0.00,WUHU216HW,2013-04-02 09:43:00,
2013-04-02 04:44:00,32.1,19.0,29.86,NE,45,0.0,0.0,58,0.00,,,0.00,WUHU216HW,2013-04-02 09:44:00,
2013-04-02 04:45:00,32.1,19.0,29.87,NE,45,0.0,0.0,58,0.00,,,0.00,WUHU216HW,2013-04-02 09:45:00,
2013-04-02 04:46:00,32.1,19.0,29.86,NE,45,0.0,0.0,58,0.00,,,0.00,WUHU216HW,2013-04-02 09:46:00,
2013-04-02 04:47:00,32.1,19.0,29.86,NE,45,0.0,0.0,58,0.00,,,0.00,WUHU216HW,2013-04-02 09:47:00,
2013-04-02 04:48:00,32.1,19.0,29.86,NE,45,0.0,0.0,58,0.00,,,0.00,WUHU216HW,2013-04-02 09:48:00,
2013-04-02 04:49:00,32.1,19.0,29.86,NE,45,0.0,0.0,58,0.00,,,0.00,WUHU216HW,2013-04-02 09:49:00,
2013-04-02 04:51:00,32.3,19.2,29.87,NE,45,0.0,0.0,58,0.00,,,0.00,WUHU216HW,2013-04-02 09:51:00,
2013-04-02 04:52:00,32.3,19.2,29.87,NE,45,0.0,0.0,58,0.00,,,0.00,WUHU216HW,2013-04-02 09:52:00,
2013-04-02 04:54:00,32.3,19.2,29.87,ENE,68,0.0,0.0,58,0.00,,,0.00,WUHU216HW,2013-04-02 09:54:00,
2013-04-02 04:55:00,32.3,19.2,29.87,NE,45,0.0,0.0,58,0.00,,,0.00,WUHU216HW,2013-04-02 09:55:00,
2013-04-02 04:57:00,32.3,19.2,29.87,NE,45,0.0,0.0,58,0.00,,,0.00,WUHU216HW,2013-04-02 09:57:00,
2013-04-02 04:58:00,32.3,19.2,29.87,NE,45,0.0,0.0,58,0.00,,,0.00,WUHU216HW,2013-04-02 09:58:00,
2013-04-02 05:00:00,32.3,19.2,29.87,NE,45,0.0,0.0,58,0.00,,,0.00,WUHU216HW,2013-04-02 10:00:00,
2013-04-02 05:01:00,32.3,19.2,29.87,NE,45,0.0,0.0,58,0.00,,,0.00,WUHU216HW,2013-04-02 10:01:00,
2013-04-02 05:02:00,32.3,19.2,29.87,NE,45,0.0,0.0,58,0.00,,,0.00,WUHU216HW,2013-04-02 10:02:00,
2013-04-02 05:04:00,32.3,19.2,29.88,NE,45,0.0,0.0,58,0.00,,,0.00,WUHU216HW,2013-04-02 10:04:00,
2013-04-02 05:05:00,32.3,19.2,29.87,NE,45,0.0,0.0,58,0.00,,,0.00,WUHU216HW,2013-04-02 10:05:00,
2013-04-02 05:07:00,32.3,19.2,29.87,NE,45,0.0,0.0,58,0.00,,,0.00,WUHU216HW,2013-04-02 10:07:00,
2013-04-02 05:08:00,32.3,19.2,29.87,NE,45,0.0,0.0,58,0.00,,,0.00,WUHU216HW,2013-04-02 10:08:00,
2013-04-02 05:10:00,32.1,19.0,29.88,NE,45,0.0,0.0,58,0.00,,,0.00,WUHU216HW,2013-04-02 10:10:00,
2013-04-02 05:11:00,32.1,19.0,29.88,NE,45,0.0,0.0,58,0.00,,,0.00,WUHU216HW,2013-04-02 10:11:00,
2013-04-02 05:12:00,32.3,19.2,29.88,NE,45,0.0,0.0,58,0.00,,,0.00,WUHU216HW,2013-04-02 10:12:00,
2013-04-02 05:14:00,32.3,19.2,29.88,NE,45,0.0,0.0,58,0.00,,,0.00,WUHU216HW,2013-04-02 10:14:00,
2013-04-02 05:15:00,32.1,19.0,29.88,NE,45,0.0,0.0,58,0.00,,,0.00,WUHU216HW,2013-04-02 10:15:00,
2013-04-02 05:16:00,32.1,19.0,29.88,NE,45,0.0,0.0,58,0.00,,,0.00,WUHU216HW,2013-04-02 10:16:00,
2013-04-02 05:17:00,32.1,19.0,29.88,NE,45,0.0,0.0,58,0.00,,,0.00,WUHU216HW,2013-04-02 10:17:00,
2013-04-02 05:19:00,32.1,19.0,29.88,NNE,23,0.0,0.0,58,0.00,,,0.00,WUHU216HW,2013-04-02 10:19:00,
2013-04-02 05:20:00,32.1,19.0,29.88,NNE,23,0.0,0.0,58,0.00,,,0.00,WUHU216HW,2013-04-02 10:20:00,
2013-04-02 05:21:00,32.1,19.0,29.88,NE,45,0.0,0.0,58,0.00,,,0.00,WUHU216HW,2013-04-02 10:21:00,
2013-04-02 05:23:00,32.1,19.0,29.87,NE,45,0.0,0.0,58,0.00,,,0.00,WUHU216HW,2013-04-02 10:23:00,
2013-04-02 05:24:00,32.1,19.0,29.88,NE,45,0.0,0.0,58,0.00,,,0.00,WUHU216HW,2013-04-02 10:24:00,
2013-04-02 05:26:00,32.1,19.0,29.88,NE,45,0.0,0.0,58,0.00,,,0.00,WUHU216HW,2013-04-02 10:26:00,
2013-04-02 05:27:00,32.1,19.0,29.88,NNE,23,0.0,0.0,58,0.00,,,0.00,WUHU216HW,2013-04-02 10:27:00,
2013-04-02 05:29:00,32.1,19.0,29.88,NNE,23,0.0,0.0,58,0.00,,,0.00,WUHU216HW,2013-04-02 10:29:00,
2013-04-02 05:30:00,32.1,19.0,29.88,NE,45,0.0,0.0,58,0.00,,,0.00,WUHU216HW,2013-04-02 10:30:00,
2013-04-02 05:32:00,32.1,19.0,29.88,NE,45,0.0,0.0,58,0.00,,,0.00,WUHU216HW,2013-04-02 10:32:00,
2013-04-02 05:33:00,32.1,19.0,29.88,NE,45,0.0,0.0,58,0.00,,,0.00,WUHU216HW,2013-04-02 10:33:00,
2013-04-02 05:35:00,32.1,19.0,29.88,NE,45,0.0,0.0,58,0.00,,,0.00,WUHU216HW,2013-04-02 10:35:00,
2013-04-02 05:36:00,32.1,19.0,29.88,NE,45,0.0,0.0,58,0.00,,,0.00,WUHU216HW,2013-04-02 10:36:00,
2013-04-02 05:38:00,32.1,19.0,29.88,NE,45,0.0,0.0,58,0.00,,,0.00,WUHU216HW,2013-04-02 10:38:00,
2013-04-02 05:39:00,32.1,19.0,29.87,NE,45,0.0,0.0,58,0.00,,,0.00,WUHU216HW,2013-04-02 10:39:00,
2013-04-02 05:40:00,32.1,19.4,29.87,NE,45,0.0,0.0,59,0.00,,,0.00,WUHU216HW,2013-04-02 10:40:00,
2013-04-02 05:42:00,32.0,19.3,29.88,NE,45,0.0,0.0,59,0.00,,,0.00,WUHU216HW,2013-04-02 10:42:00,
2013-04-02 05:43:00,32.0,19.3,29.88,NE,45,0.0,0.0,59,0.00,,,0.00,WUHU216HW,2013-04-02 10:43:00,
2013-04-02 05:44:00,31.8,19.1,29.88,NE,45,0.0,0.0,59,0.00,,,0.00,WUHU216HW,2013-04-02 10:44:00,
2013-04-02 05:46:00,31.8,19.1,29.88,NE,45,0.0,0.0,59,0.00,,,0.00,WUHU216HW,2013-04-02 10:46:00,
2013-04-02 05:47:00,31.8,19.1,29.88,NE,45,0.0,0.0,59,0.00,,,0.00,WUHU216HW,2013-04-02 10:47:00,
2013-04-02 05:48:00,31.8,19.1,29.88,NE,45,0.0,0.0,59,0.00,,,0.00,WUHU216HW,2013-04-02 10:48:00,
2013-04-02 05:49:00,31.8,19.1,29.87,NE,45,0.0,0.0,59,0.00,,,0.00,WUHU216HW,2013-04-02 10:49:00,
2013-04-02 05:51:00,31.8,19.1,29.87,NE,45,0.0,0.0,59,0.00,,,0.00,WUHU216HW,2013-04-02 10:51:00,
2013-04-02 05:52:00,31.8,19.1,29.88,NE,45,0.0,0.0,59,0.00,,,0.00,WUHU216HW,2013-04-02 10:52:00,
2013-04-02 05:53:00,31.8,19.1,29.87,NE,45,0.0,0.0,59,0.00,,,0.00,WUHU216HW,2013-04-02 10:53:00,
2013-04-02 05:54:00,31.8,19.1,29.87,NE,45,0.0,0.0,59,0.00,,,0.00,WUHU216HW,2013-04-02 10:54:00,
2013-04-02 05:56:00,31.8,19.1,29.88,NE,45,0.0,0.0,59,0.00,,,0.00,WUHU216HW,2013-04-02 10:56:00,
2013-04-02 05:57:00,31.8,19.1,29.88,NE,45,0.0,0.0,59,0.00,,,0.00,WUHU216HW,2013-04-02 10:57:00,
2013-04-02 05:58:00,31.8,19.1,29.88,NE,45,0.0,0.0,59,0.00,,,0.00,WUHU216HW,2013-04-02 10:58:00,
2013-04-02 05:59:00,31.8,19.1,29.88,NE,45,0.0,0.0,59,0.00,,,0.00,WUHU216HW,2013-04-02 10:59:00,
2013-04-02 06:01:00,31.8,19.1,29.88,NE,45,0.0,0.0,59,0.00,,,0.00,WUHU216HW,2013-04-02 11:01:00,
2013-04-02 06:02:00,31.6,18.9,29.88,NE,45,0.0,0.0,59,0.00,,,0.00,WUHU216HW,2013-04-02 11:02:00,
2013-04-02 06:04:00,31.6,18.9,29.89,NE,45,0.0,0.0,59,0.00,,,0.00,WUHU216HW,2013-04-02 11:04:00,
2013-04-02 06:05:00,31.6,18.9,29.89,NE,45,0.0,0.0,59,0.00,,,0.00,WUHU216HW,2013-04-02 11:05:00,
2013-04-02 06:07:00,31.6,18.9,29.89,NE,45,0.0,0.0,59,0.00,,,0.00,WUHU216HW,2013-04-02 11:07:00,
2013-04-02 06:08:00,31.6,18.9,29.89,NE,45,0.0,0.0,59,0.00,,,0.00,WUHU216HW,2013-04-02 11:08:00,
2013-04-02 06:10:00,31.6,18.9,29.89,NE,45,0.0,0.0,59,0.00,,,0.00,WUHU216HW,2013-04-02 11:10:00,
2013-04-02 06:11:00,31.6,18.9,29.89,NE,45,0.0,0.0,59,0.00,,,0.00,WUHU216HW,2013-04-02 11:11:00,
2013-04-02 06:13:00,31.6,18.9,29.89,NE,45,0.0,0.0,59,0.00,,,0.00,WUHU216HW,2013-04-02 11:13:00,
2013-04-02 06:14:00,31.6,18.9,29.89,NE,45,0.0,0.0,59,0.00,,,0.00,WUHU216HW,2013-04-02 11:14:00,
2013-04-02 06:16:00,31.6,18.9,29.89,NNE,23,0.0,0.0,59,0.00,,,0.00,WUHU216HW,2013-04-02 11:16:00,
2013-04-02 06:17:00,31.6,18.9,29.89,NNE,23,0.0,0.0,59,0.00,,,0.00,WUHU216HW,2013-04-02 11:17:00,
2013-04-02 06:19:00,31.6,18.9,29.89,NE,45,0.0,0.0,59,0.00,,,0.00,WUHU216HW,2013-04-02 11:19:00,
2013-04-02 06:20:00,31.6,18.9,29.89,NE,45,0.0,0.0,59,0.00,,,0.00,WUHU216HW,2013-04-02 11:20:00,
2013-04-02 06:22:00,31.6,18.9,29.89,NE,45,0.8,0.8,59,0.00,,,0.00,WUHU216HW,2013-04-02 11:22:00,
2013-04-02 06:23:00,31.6,18.9,29.89,NNE,23,0.0,0.8,59,0.00,,,0.00,WUHU216HW,2013-04-02 11:23:00,
2013-04-02 06:24:00,31.6,18.9,29.89,NNE,23,0.0,0.8,59,0.00,,,0.00,WUHU216HW,2013-04-02 11:24:00,
2013-04-02 06:25:00,31.6,18.9,29.89,NNE,23,0.0,0.8,59,0.00,,,0.00,WUHU216HW,2013-04-02 11:25:00,
2013-04-02 06:27:00,31.6,18.9,29.89,NE,45,0.0,0.8,59,0.00,,,0.00,WUHU216HW,2013-04-02 11:27:00,
2013-04-02 06:28:00,31.6,18.9,29.89,NE,45,0.0,0.8,59,0.00,,,0.00,WUHU216HW,2013-04-02 11:28:00,
2013-04-02 06:29:00,31.6,18.9,29.89,NE,45,0.0,0.8,59,0.00,,,0.00,WUHU216HW,2013-04-02 11:29:00,
2013-04-02 06:30:00,31.6,18.9,29.89,NE,45,0.0,0.8,59,0.00,,,0.00,WUHU216HW,2013-04-02 11:30:00,
2013-04-02 06:32:00,31.4,19.2,29.89,NE,45,0.0,0.0,60,0.00,,,0.00,WUHU216HW,2013-04-02 11:32:00,
2013-04-02 06:33:00,31.4,19.2,29.89,NE,45,0.0,0.0,60,0.00,,,0.00,WUHU216HW,2013-04-02 11:33:00,
2013-04-02 06:34:00,31.2,19.0,29.89,NE,45,0.0,0.0,60,0.00,,,0.00,WUHU216HW,2013-04-02 11:34:00,
2013-04-02 06:35:00,31.2,19.0,29.89,NE,45,0.0,0.0,60,0.00,,,0.00,WUHU216HW,2013-04-02 11:35:00,
2013-04-02 06:37:00,31.2,19.0,29.89,NE,45,0.0,0.0,60,0.00,,,0.00,WUHU216HW,2013-04-02 11:37:00,
2013-04-02 06:38:00,31.2,19.0,29.88,NE,45,0.0,0.0,60,0.00,,,0.00,WUHU216HW,2013-04-02 11:38:00,
2013-04-02 06:40:00,31.2,19.0,29.89,NNE,23,0.0,0.0,60,0.00,,,0.00,WUHU216HW,2013-04-02 11:40:00,
2013-04-02 06:41:00,31.2,19.0,29.89,NNE,23,0.0,0.0,60,0.00,,,0.00,WUHU216HW,2013-04-02 11:41:00,
2013-04-02 06:43:00,31.2,19.0,29.88,NE,45,0.0,0.0,60,0.00,,,0.00,WUHU216HW,2013-04-02 11:43:00,
2013-04-02 06:44:00,31.1,19.0,29.88,NE,45,1.1,1.1,60,0.00,,,0.00,WUHU216HW,2013-04-02 11:44:00,
2013-04-02 06:46:00,31.1,18.8,29.89,NE,45,1.1,1.1,60,0.00,,,0.00,WUHU216HW,2013-04-02 11:46:00,
2013-04-02 06:47:00,31.1,18.8,29.88,NE,45,0.0,1.1,60,0.00,,,0.00,WUHU216HW,2013-04-02 11:47:00,
2013-04-02 06:49:00,31.1,18.8,29.88,NE,45,0.0,1.1,60,0.00,,,0.00,WUHU216HW,2013-04-02 11:49:00,
2013-04-02 06:50:00,31.1,18.8,29.88,NE,45,0.0,1.1,60,0.00,,,0.00,WUHU216HW,2013-04-02 11:50:00,
2013-04-02 06:52:00,31.1,18.8,29.88,NE,45,0.0,1.1,60,0.00,,,0.00,WUHU216HW,2013-04-02 11:52:00,
2013-04-02 06:53:00,30.9,18.6,29.89,NE,45,0.0,1.1,60,0.00,,,0.00,WUHU216HW,2013-04-02 11:53:00,
2013-04-02 06:55:00,30.9,18.6,29.89,NE,45,0.0,1.1,60,0.00,,,0.00,WUHU216HW,2013-04-02 11:55:00,
2013-04-02 06:56:00,30.9,18.6,29.89,NE,45,0.0,0.0,60,0.00,,,0.00,WUHU216HW,2013-04-02 11:56:00,
2013-04-02 07:06:00,30.7,18.8,29.88,NE,45,0.0,1.3,61,0.00,,,0.00,WUHU216HW,2013-04-02 12:06:00,
2013-04-02 07:11:00,30.7,18.8,29.89,NE,45,0.0,1.3,61,0.00,,,0.00,WUHU216HW,2013-04-02 12:11:00,
2013-04-02 07:16:00,30.5,18.8,29.89,NE,45,0.0,0.0,61,0.00,,,0.00,WUHU216HW,2013-04-02 12:16:00,
2013-04-02 07:21:00,30.5,18.6,29.89,NE,45,0.0,0.0,61,0.00,,,0.00,WUHU216HW,2013-04-02 12:21:00,
2013-04-02 07:26:00,30.5,18.6,29.90,NE,45,0.0,0.0,61,0.00,,,0.00,WUHU216HW,2013-04-02 12:26:00,
2013-04-02 07:32:00,30.5,18.6,29.90,NE,45,0.0,0.0,61,0.00,,,0.00,WUHU216HW,2013-04-02 12:32:00,
2013-04-02 07:37:00,30.7,18.8,29.89,NE,45,0.0,0.0,61,0.00,,,0.00,WUHU216HW,2013-04-02 12:37:00,
2013-04-02 07:42:00,30.7,18.8,29.89,NE,45,0.0,0.0,61,0.00,,,0.00,WUHU216HW,2013-04-02 12:42:00,
2013-04-02 07:47:00,30.7,18.8,29.89,NE,45,0.0,0.0,61,0.00,,,0.00,WUHU216HW,2013-04-02 12:47:00,
2013-04-02 07:52:00,30.7,19.2,29.89,NE,45,0.0,0.0,62,0.00,,,0.00,WUHU216HW,2013-04-02 12:52:00,
2013-04-02 07:57:00,30.7,19.2,29.89,NE,45,0.0,0.0,62,0.00,,,0.00,WUHU216HW,2013-04-02 12:57:00,
2013-04-02 08:02:00,30.9,19.4,29.89,NE,45,0.0,0.0,62,0.00,,,0.00,WUHU216HW,2013-04-02 13:02:00,
2013-04-02 08:07:00,30.9,19.4,29.89,NE,45,2.0,2.0,62,0.00,,,0.00,WUHU216HW,2013-04-02 13:07:00,
2013-04-02 08:12:00,31.1,19.9,29.90,East,90,0.0,2.0,63,0.00,,,0.00,WUHU216HW,2013-04-02 13:12:00,
2013-04-02 08:17:00,31.2,20.1,29.90,ENE,68,0.0,0.0,63,0.00,,,0.00,WUHU216HW,2013-04-02 13:17:00,
2013-04-02 08:22:00,31.2,20.1,29.90,East,90,0.0,0.0,63,0.00,,,0.00,WUHU216HW,2013-04-02 13:22:00,
2013-04-02 08:27:00,31.6,20.4,29.91,ENE,68,3.8,3.8,63,0.00,,,0.00,WUHU216HW,2013-04-02 13:27:00,
2013-04-02 08:32:00,31.8,20.6,29.91,ENE,68,3.8,3.8,63,0.00,,,0.00,WUHU216HW,2013-04-02 13:32:00,
2013-04-02 08:37:00,32.1,21.0,29.91,NE,45,2.2,3.8,63,0.00,,,0.00,WUHU216HW,2013-04-02 13:37:00,
2013-04-02 08:42:00,32.3,21.1,29.91,NE,45,0.0,3.8,63,0.00,,,0.00,WUHU216HW,2013-04-02 13:42:00,
2013-04-02 08:47:00,32.5,21.3,29.92,SE,135,0.0,0.0,63,0.00,,,0.00,WUHU216HW,2013-04-02 13:47:00,
2013-04-02 08:52:00,32.7,21.4,29.91,SE,135,0.0,0.0,63,0.00,,,0.00,WUHU216HW,2013-04-02 13:52:00,
2013-04-02 08:57:00,33.0,21.4,29.92,ENE,68,0.0,5.5,62,0.00,,,0.00,WUHU216HW,2013-04-02 13:57:00,
2013-04-02 09:02:00,33.4,21.7,29.92,East,90,0.0,5.5,62,0.00,,,0.00,WUHU216HW,2013-04-02 14:02:00,
2013-04-02 09:07:00,33.4,21.7,29.91,East,90,1.1,1.1,62,0.00,,,0.00,WUHU216HW,2013-04-02 14:07:00,
2013-04-02 09:13:00,33.8,22.1,29.91,NNE,23,0.0,4.2,62,0.00,,,0.00,WUHU216HW,2013-04-02 14:13:00,
2013-04-02 09:18:00,34.3,22.4,29.91,East,90,0.0,7.3,62,0.00,,,0.00,WUHU216HW,2013-04-02 14:18:00,
2013-04-02 09:23:00,34.3,22.6,29.91,NE,45,1.1,7.3,62,0.00,,,0.00,WUHU216HW,2013-04-02 14:23:00,
2013-04-02 09:28:00,34.5,22.4,29.91,East,90,2.4,6.0,61,0.00,,,0.00,WUHU216HW,2013-04-02 14:28:00,
2013-04-02 09:32:00,34.7,22.6,29.91,East,90,2.9,10.0,61,0.00,,,0.00,WUHU216HW,2013-04-02 14:32:00,
2013-04-02 09:37:00,35.2,22.8,29.91,NE,45,6.2,10.0,60,0.00,,,0.00,WUHU216HW,2013-04-02 14:37:00,
2013-04-02 09:42:00,35.4,23.0,29.91,ENE,68,6.4,8.0,60,0.00,,,0.00,WUHU216HW,2013-04-02 14:42:00,
2013-04-02 09:47:00,35.4,23.0,29.92,East,90,1.7,6.4,60,0.00,,,0.00,WUHU216HW,2013-04-02 14:47:00,
2013-04-02 09:52:00,35.9,23.5,29.91,NE,45,1.7,6.4,60,0.00,,,0.00,WUHU216HW,2013-04-02 14:52:00,
2013-04-02 09:57:00,36.5,23.9,29.91,NE,45,7.6,7.6,60,0.00,,,0.00,WUHU216HW,2013-04-02 14:57:00,
2013-04-02 10:02:00,36.8,23.8,29.92,NNE,23,3.5,8.2,59,0.00,,,0.00,WUHU216HW,2013-04-02 15:02:00,
2013-04-02 10:07:00,37.2,24.2,29.92,NNE,23,2.6,8.2,59,0.00,,,0.00,WUHU216HW,2013-04-02 15:07:00,
2013-04-02 10:12:00,37.7,24.2,29.92,East,90,5.5,5.8,58,0.00,,,0.00,WUHU216HW,2013-04-02 15:12:00,
2013-04-02 10:17:00,37.9,24.8,29.92,ENE,68,6.2,6.2,59,0.00,,,0.00,WUHU216HW,2013-04-02 15:17:00,
2013-04-02 10:22:00,38.3,24.7,29.92,NE,45,0.0,9.3,58,0.00,,,0.00,WUHU216HW,2013-04-02 15:22:00,
2013-04-02 10:27:00,38.8,24.8,29.91,SE,135,2.2,9.3,57,0.00,,,0.00,WUHU216HW,2013-04-02 15:27:00,
2013-04-02 10:32:00,39.0,24.9,29.92,ENE,68,3.1,5.8,57,0.00,,,0.00,WUHU216HW,2013-04-02 15:32:00,
2013-04-02 10:37:00,39.3,25.2,29.92,North,0,5.5,5.5,57,0.00,,,0.00,WUHU216HW,2013-04-02 15:37:00,
2013-04-02 10:42:00,39.7,25.1,29.91,ENE,68,0.6,5.5,56,0.00,,,0.00,WUHU216HW,2013-04-02 15:42:00,
2013-04-02 10:48:00,39.9,24.9,29.91,ENE,68,2.0,3.5,55,0.00,,,0.00,WUHU216HW,2013-04-02 15:48:00,
2013-04-02 10:53:00,40.2,25.2,29.91,NE,45,7.8,7.8,55,0.00,,,0.00,WUHU216HW,2013-04-02 15:53:00,
2013-04-02 10:58:00,40.6,25.1,29.91,ENE,68,2.4,7.8,54,0.00,,,0.00,WUHU216HW,2013-04-02 15:58:00,
2013-04-02 11:03:00,40.8,25.7,29.91,ESE,113,1.5,7.3,55,0.00,,,0.00,WUHU216HW,2013-04-02 16:03:00,
2013-04-02 11:08:00,41.1,25.2,29.91,WNW,293,5.3,7.3,53,0.00,,,0.00,WUHU216HW,2013-04-02 16:08:00,
2013-04-02 11:13:00,41.3,24.9,29.91,ENE,68,5.3,5.3,52,0.00,,,0.00,WUHU216HW,2013-04-02 16:13:00,
2013-04-02 11:18:00,41.5,25.5,29.91,North,0,4.6,5.3,53,0.00,,,0.00,WUHU216HW,2013-04-02 16:18:00,
2013-04-02 11:23:00,42.0,24.8,29.91,NE,45,3.5,4.6,50,0.00,,,0.00,WUHU216HW,2013-04-02 16:23:00,
2013-04-02 11:28:00,42.0,25.2,29.91,NE,45,4.9,4.9,51,0.00,,,0.00,WUHU216HW,2013-04-02 16:28:00,
2013-04-02 11:33:00,42.4,24.6,29.91,NNW,338,8.0,8.0,50,0.00,,,0.00,WUHU216HW,2013-04-02 16:33:00,
2013-04-02 11:39:00,42.6,25.3,29.91,NE,45,4.2,8.0,50,0.00,,,0.00,WUHU216HW,2013-04-02 16:39:00,
2013-04-02 11:44:00,43.1,26.2,29.90,NNE,23,0.0,8.0,51,0.00,,,0.00,WUHU216HW,2013-04-02 16:44:00,
2013-04-02 11:49:00,43.5,26.6,29.91,NE,45,4.6,4.6,51,0.00,,,0.00,WUHU216HW,2013-04-02 16:49:00,
2013-04-02 11:54:00,44.2,26.8,29.91,NE,45,1.3,4.6,50,0.00,,,0.00,WUHU216HW,2013-04-02 16:54:00,
2013-04-02 11:59:00,44.4,26.4,29.91,ENE,68,2.4,4.2,49,0.00,,,0.00,WUHU216HW,2013-04-02 16:59:00,
2013-04-02 12:04:00,44.4,26.7,29.90,NNE,23,6.0,6.0,49,0.00,,,0.00,WUHU216HW,2013-04-02 17:04:00,
2013-04-02 12:09:00,44.9,26.9,29.90,ENE,68,0.8,6.0,49,0.00,,,0.00,WUHU216HW,2013-04-02 17:09:00,
2013-04-02 12:14:00,45.1,26.0,29.90,NE,45,2.9,6.0,47,0.00,,,0.00,WUHU216HW,2013-04-02 17:14:00,
2013-04-02 12:19:00,45.1,26.0,29.90,NNE,23,2.6,8.0,47,0.00,,,0.00,WUHU216HW,2013-04-02 17:19:00,
2013-04-02 12:24:00,45.5,26.3,29.89,NNE,23,6.2,8.0,47,0.00,,,0.00,WUHU216HW,2013-04-02 17:24:00,
2013-04-02 12:29:00,46.2,27.5,29.89,NE,45,0.8,6.2,48,0.00,,,0.00,WUHU216HW,2013-04-02 17:29:00,
2013-04-02 12:34:00,46.7,28.0,29.89,NE,45,2.6,6.9,48,0.00,,,0.00,WUHU216HW,2013-04-02 17:34:00,
2013-04-02 12:39:00,47.1,27.2,29.89,NNE,23,3.5,6.9,46,0.00,,,0.00,WUHU216HW,2013-04-02 17:39:00,
2013-04-02 12:44:00,47.1,26.7,29.89,East,90,4.2,5.8,45,0.00,,,0.00,WUHU216HW,2013-04-02 17:44:00,
2013-04-02 12:49:00,47.3,26.8,29.89,NE,45,4.0,5.8,45,0.00,,,0.00,WUHU216HW,2013-04-02 17:49:00,
2013-04-02 12:55:00,47.6,27.7,29.89,ENE,68,4.4,4.4,46,0.00,,,0.00,WUHU216HW,2013-04-02 17:55:00,
2013-04-02 13:00:00,48.0,27.5,29.89,SE,135,3.1,5.5,45,0.00,,,0.00,WUHU216HW,2013-04-02 18:00:00,
2013-04-02 13:05:00,48.2,27.6,29.89,North,0,1.7,5.5,45,0.00,,,0.00,WUHU216HW,2013-04-02 18:05:00,
2013-04-02 13:10:00,48.5,28.0,29.89,ENE,68,4.9,5.5,45,0.00,,,0.00,WUHU216HW,2013-04-02 18:10:00,
2013-04-02 13:15:00,48.7,27.6,29.89,West,270,0.0,5.5,44,0.00,,,0.00,WUHU216HW,2013-04-02 18:15:00,
2013-04-02 13:20:00,49.1,27.9,29.89,ENE,68,0.0,4.9,44,0.00,,,0.00,WUHU216HW,2013-04-02 18:20:00,
2013-04-02 13:25:00,49.6,29.0,29.89,ENE,68,0.0,3.8,45,0.00,,,0.00,WUHU216HW,2013-04-02 18:25:00,
2013-04-02 13:30:00,49.6,28.4,29.89,ENE,68,4.2,8.0,44,0.00,,,0.00,WUHU216HW,2013-04-02 18:30:00,
2013-04-02 13:35:00,49.8,28.6,29.89,East,90,5.5,8.0,44,0.00,,,0.00,WUHU216HW,2013-04-02 18:35:00,
2013-04-02 13:40:00,50.1,28.4,29.89,ENE,68,2.0,7.3,43,0.00,,,0.00,WUHU216HW,2013-04-02 18:40:00,
2013-04-02 13:45:00,50.1,28.4,29.89,East,90,3.1,10.5,43,0.00,,,0.00,WUHU216HW,2013-04-02 18:45:00,
2013-04-02 13:50:00,50.1,28.4,29.88,NE,45,0.0,10.5,44,0.00,,,0.00,WUHU216HW,2013-04-02 18:50:00,
2013-04-02 13:55:00,50.5,29.3,29.88,NE,45,3.5,9.1,44,0.00,,,0.00,WUHU216HW,2013-04-02 18:55:00,
2013-04-02 14:00:00,50.5,28.7,29.88,ESE,113,7.8,7.8,43,0.00,,,0.00,WUHU216HW,2013-04-02 19:00:00,
2013-04-02 14:05:00,50.5,28.7,29.88,ESE,113,4.0,7.8,43,0.00,,,0.00,WUHU216HW,2013-04-02 19:05:00,
2013-04-02 14:10:00,50.7,28.9,29.87,East,90,4.0,7.8,43,0.00,,,0.00,WUHU216HW,2013-04-02 19:10:00,
2013-04-02 14:15:00,50.9,29.0,29.87,NE,45,1.1,7.6,43,0.00,,,0.00,WUHU216HW,2013-04-02 19:15:00,
2013-04-02 14:20:00,51.0,28.6,29.88,NE,45,4.2,7.3,42,0.00,,,0.00,WUHU216HW,2013-04-02 19:20:00,
2013-04-02 14:25:00,51.4,29.5,29.87,ENE,68,0.0,7.3,43,0.00,,,0.00,WUHU216HW,2013-04-02 19:25:00,
2013-04-02 14:30:00,51.4,29.0,29.88,NE,45,3.5,6.2,42,0.00,,,0.00,WUHU216HW,2013-04-02 19:30:00,
2013-04-02 14:35:00,51.4,28.4,29.87,ENE,68,4.6,6.2,41,0.00,,,0.00,WUHU216HW,2013-04-02 19:35:00,
2013-04-02 14:40:00,51.6,28.6,29.87,ENE,68,6.0,6.0,41,0.00,,,0.00,WUHU216HW,2013-04-02 19:40:00,
2013-04-02 14:45:00,51.6,29.1,29.87,SW,225,5.8,6.0,42,0.00,,,0.00,WUHU216HW,2013-04-02 19:45:00,
2013-04-02 14:50:00,51.8,28.7,29.86,ESE,113,0.8,6.0,41,0.00,,,0.00,WUHU216HW,2013-04-02 19:50:00,
2013-04-02 14:55:00,52.1,29.1,29.86,ESE,113,0.0,7.1,41,0.00,,,0.00,WUHU216HW,2013-04-02 19:55:00,
2013-04-02 15:00:00,52.5,29.9,29.86,North,0,0.0,7.1,42,0.00,,,0.00,WUHU216HW,2013-04-02 20:00:00,
2013-04-02 15:05:00,52.5,29.4,29.86,NE,45,3.8,3.8,41,0.00,,,0.00,WUHU216HW,2013-04-02 20:05:00,
2013-04-02 15:10:00,52.8,29.1,29.86,North,0,7.8,7.8,40,0.00,,,0.00,WUHU216HW,2013-04-02 20:10:00,
2013-04-02 15:15:00,52.5,28.1,29.86,NNW,338,6.4,7.8,39,0.00,,,0.00,WUHU216HW,2013-04-02 20:15:00,
2013-04-02 15:20:00,52.1,27.8,29.86,North,0,2.6,7.8,39,0.00,,,0.00,WUHU216HW,2013-04-02 20:20:00,
2013-04-02 15:25:00,51.9,28.3,29.86,ENE,68,2.9,4.6,40,0.00,,,0.00,WUHU216HW,2013-04-02 20:25:00,
2013-04-02 15:30:00,52.3,29.2,29.86,NE,45,1.7,3.8,41,0.00,,,0.00,WUHU216HW,2013-04-02 20:30:00,
2013-04-02 15:35:00,52.5,28.8,29.86,NE,45,3.5,3.5,40,0.00,,,0.00,WUHU216HW,2013-04-02 20:35:00,
2013-04-02 18:39:00,49.8,25.7,29.84,East,90,1.5,1.5,39,0.00,,,0.00,WUHU216HW,2013-04-02 23:39:00,
2013-04-02 18:44:00,49.6,26.2,29.84,ENE,68,0.0,7.8,40,0.00,,,0.00,WUHU216HW,2013-04-02 23:44:00,
2013-04-02 18:49:00,49.2,25.9,29.84,NNE,23,2.2,7.8,40,0.00,,,0.00,WUHU216HW,2013-04-02 23:49:00,
2013-04-02 18:54:00,48.9,25.6,29.84,East,90,5.1,5.1,40,0.00,,,0.00,WUHU216HW,2013-04-02 23:54:00,
2013-04-02 18:59:00,48.7,26.0,29.84,ENE,68,5.3,5.3,41,0.00,,,0.00,WUHU216HW,2013-04-02 23:59:00,
2013-04-02 19:04:00,48.5,25.8,29.84,NE,45,0.8,5.3,41,0.00,,,0.00,WUHU216HW,2013-04-03 00:04:00,
2013-04-02 19:09:00,48.0,25.5,29.84,ENE,68,0.0,5.3,41,0.00,,,0.00,WUHU216HW,2013-04-03 00:09:00,
2013-04-02 19:14:00,47.8,25.1,29.84,NE,45,0.0,2.9,41,0.00,,,0.00,WUHU216HW,2013-04-03 00:14:00,
2013-04-02 19:21:00,47.4,25.4,29.84,NE,45,0.0,2.9,42,0.00,,,0.00,WUHU216HW,2013-04-03 00:21:00,
2013-04-02 19:27:00,47.3,25.7,29.84,NE,45,0.0,1.5,43,0.00,,,0.00,WUHU216HW,2013-04-03 00:27:00,
2013-04-02 19:32:00,46.9,25.4,29.84,ENE,68,0.0,0.0,43,0.00,,,0.00,WUHU216HW,2013-04-03 00:32:00,
2013-04-02 19:37:00,46.5,25.1,29.84,NE,45,0.0,1.5,43,0.00,,,0.00,WUHU216HW,2013-04-03 00:37:00,
2013-04-02 19:42:00,46.2,24.8,29.84,NE,45,0.0,1.5,43,0.00,,,0.00,WUHU216HW,2013-04-03 00:42:00,
2013-04-02 19:47:00,46.0,25.1,29.84,ENE,68,0.0,0.0,44,0.00,,,0.00,WUHU216HW,2013-04-03 00:47:00,
2013-04-02 19:52:00,45.6,24.8,29.84,NE,45,0.0,0.0,44,0.00,,,0.00,WUHU216HW,2013-04-03 00:52:00,
2013-04-02 19:57:00,45.3,24.5,29.84,ENE,68,0.0,0.0,44,0.00,,,0.00,WUHU216HW,2013-04-03 00:57:00,
2013-04-02 20:02:00,44.9,24.2,29.84,East,90,0.0,0.0,44,0.00,,,0.00,WUHU216HW,2013-04-03 01:02:00,
2013-04-02 20:07:00,44.9,24.7,29.84,East,90,1.3,1.3,45,0.00,,,0.00,WUHU216HW,2013-04-03 01:07:00,
2013-04-02 20:20:00,43.8,24.3,29.84,ENE,68,0.0,0.0,46,0.00,,,0.00,WUHU216HW,2013-04-03 01:20:00,
2013-04-02 20:25:00,43.7,24.1,29.84,ENE,68,0.0,0.0,46,0.00,,,0.00,WUHU216HW,2013-04-03 01:25:00,
2013-04-02 20:30:00,43.5,24.0,29.84,ENE,68,0.0,0.0,46,0.00,,,0.00,WUHU216HW,2013-04-03 01:30:00,
2013-04-02 20:35:00,43.1,24.2,29.85,ENE,68,0.0,0.0,47,0.00,,,0.00,WUHU216HW,2013-04-03 01:35:00,
2013-04-02 20:40:00,42.9,24.0,29.84,ENE,68,0.0,0.0,47,0.00,,,0.00,WUHU216HW,2013-04-03 01:40:00,
2013-04-02 20:45:00,42.6,23.7,29.84,NNE,23,0.0,0.0,47,0.00,,,0.00,WUHU216HW,2013-04-03 01:45:00,
2013-04-02 20:50:00,42.4,23.5,29.84,ENE,68,2.0,2.0,47,0.00,,,0.00,WUHU216HW,2013-04-03 01:50:00,
2013-04-02 20:55:00,42.4,24.0,29.84,ENE,68,0.0,2.0,48,0.00,,,0.00,WUHU216HW,2013-04-03 01:55:00,
2013-04-02 21:00:00,42.0,23.7,29.85,ENE,68,0.0,2.0,48,0.00,,,0.00,WUHU216HW,2013-04-03 02:00:00,
2013-04-02 21:05:00,41.9,23.5,29.85,ENE,68,0.0,0.0,48,0.00,,,0.00,WUHU216HW,2013-04-03 02:05:00,
2013-04-02 21:10:00,41.7,23.9,29.85,ENE,68,0.0,0.0,49,0.00,,,0.00,WUHU216HW,2013-04-03 02:10:00,
2013-04-02 21:15:00,41.5,23.9,29.86,ENE,68,0.0,0.0,50,0.00,,,0.00,WUHU216HW,2013-04-03 02:15:00,
2013-04-02 21:21:00,41.5,24.2,29.86,ENE,68,0.0,0.0,50,0.00,,,0.00,WUHU216HW,2013-04-03 02:21:00,
2013-04-02 21:26:00,41.3,24.0,29.86,ENE,68,0.0,0.0,50,0.00,,,0.00,WUHU216HW,2013-04-03 02:26:00,
2013-04-02 21:31:00,41.0,23.9,29.86,ENE,68,0.0,0.0,50,0.00,,,0.00,WUHU216HW,2013-04-03 02:31:00,
2013-04-02 21:36:00,40.8,23.5,29.86,ENE,68,0.0,0.0,50,0.00,,,0.00,WUHU216HW,2013-04-03 02:36:00,
2013-04-02 21:41:00,40.6,23.8,29.86,ENE,68,0.0,0.0,51,0.00,,,0.00,WUHU216HW,2013-04-03 02:41:00,
2013-04-02 21:46:00,40.4,23.6,29.86,ENE,68,0.0,0.0,52,0.00,,,0.00,WUHU216HW,2013-04-03 02:46:00,
2013-04-02 21:52:00,40.2,24.3,29.86,ENE,68,0.0,0.0,53,0.00,,,0.00,WUHU216HW,2013-04-03 02:52:00,
2013-04-02 21:57:00,40.2,24.8,29.86,ENE,68,0.0,0.0,54,0.00,,,0.00,WUHU216HW,2013-04-03 02:57:00,
2013-04-02 22:02:00,40.2,24.8,29.86,ENE,68,0.0,0.0,54,0.00,,,0.00,WUHU216HW,2013-04-03 03:02:00,
2013-04-02 22:07:00,40.1,24.6,29.86,ENE,68,0.0,0.0,54,0.00,,,0.00,WUHU216HW,2013-04-03 03:07:00,
2013-04-02 22:12:00,39.7,24.3,29.86,NE,45,0.0,0.0,54,0.00,,,0.00,WUHU216HW,2013-04-03 03:12:00,
2013-04-02 22:18:00,39.7,25.1,29.86,NE,45,0.0,0.0,56,0.00,,,0.00,WUHU216HW,2013-04-03 03:18:00,
2013-04-02 22:23:00,39.7,26.0,29.86,NE,45,0.0,0.0,58,0.00,,,0.00,WUHU216HW,2013-04-03 03:23:00,
2013-04-02 22:28:00,39.5,25.4,29.86,NE,45,0.0,0.0,57,0.00,,,0.00,WUHU216HW,2013-04-03 03:28:00,
2013-04-02 22:33:00,39.3,24.8,29.86,ENE,68,0.0,0.0,56,0.00,,,0.00,WUHU216HW,2013-04-03 03:33:00,
2013-04-02 22:38:00,39.0,24.5,29.86,ENE,68,0.0,0.0,56,0.00,,,0.00,WUHU216HW,2013-04-03 03:38:00,
2013-04-02 22:43:00,39.0,24.0,29.86,ENE,68,0.0,0.0,55,0.00,,,0.00,WUHU216HW,2013-04-03 03:43:00,
2013-04-02 22:48:00,38.8,23.9,29.86,ENE,68,0.0,0.0,55,0.00,,,0.00,WUHU216HW,2013-04-03 03:48:00,
2013-04-02 22:53:00,38.4,23.6,29.86,NNE,23,0.0,0.0,55,0.00,,,0.00,WUHU216HW,2013-04-03 03:53:00,
2013-04-02 22:58:00,38.4,23.6,29.86,NE,45,0.0,0.0,55,0.00,,,0.00,WUHU216HW,2013-04-03 03:58:00,
2013-04-02 23:00:00,38.4,23.6,29.86,NE,45,0.0,0.0,55,0.00,,,0.00,WUHU216HW,2013-04-03 04:00:00,
2013-04-02 23:06:00,38.3,23.8,29.86,NE,45,0.0,0.0,56,0.00,,,0.00,WUHU216HW,2013-04-03 04:06:00,
2013-04-02 23:11:00,38.3,24.3,29.86,NE,45,1.5,1.5,57,0.00,,,0.00,WUHU216HW,2013-04-03 04:11:00,
2013-04-02 23:16:00,38.1,24.3,29.86,NE,45,0.0,1.5,57,0.00,,,0.00,WUHU216HW,2013-04-03 04:16:00,
2013-04-02 23:21:00,38.1,24.1,29.86,NE,45,0.0,1.5,57,0.00,,,0.00,WUHU216HW,2013-04-03 04:21:00,
2013-04-02 23:26:00,38.1,24.1,29.86,NE,45,0.0,0.0,57,0.00,,,0.00,WUHU216HW,2013-04-03 04:26:00,
2013-04-02 23:31:00,37.9,23.9,29.86,NE,45,0.0,0.0,57,0.00,,,0.00,WUHU216HW,2013-04-03 04:31:00,
2013-04-02 23:36:00,37.7,23.8,29.86,ENE,68,0.0,0.0,57,0.00,,,0.00,WUHU216HW,2013-04-03 04:36:00,
2013-04-02 23:41:00,37.5,23.2,29.86,ENE,68,0.0,0.0,56,0.00,,,0.00,WUHU216HW,2013-04-03 04:41:00,
2013-04-02 23:46:00,37.2,23.3,29.86,NE,45,0.0,0.0,57,0.00,,,0.00,WUHU216HW,2013-04-03 04:46:00,
2013-04-02 23:51:00,37.2,23.3,29.87,NE,45,0.0,0.0,57,0.00,,,0.00,WUHU216HW,2013-04-03 04:51:00,
2013-04-02 23:56:00,37.2,23.3,29.87,NE,45,0.0,0.0,57,0.00,,,0.00,WUHU216HW,2013-04-03 04:56:00,